| time (UTC) | temp F | wind direction | speed MPH | gust MPH | rain 1hr in | rain 24hr in | rain mn in | humidity % | barometer mb |
| 20260904232404 | 82 | 332 | 0.0 | 3.0 | 0.00 | 0.00 | 0.00 | 87 | 1006.0 |
| 20260904231904 | 82 | 316 | 1.0 | 2.0 | 0.00 | 0.00 | 0.00 | 87 | 1005.9 |
| 20260904230904 | 82 | 62 | 1.0 | 3.0 | 0.00 | 0.00 | 0.00 | 87 | 1005.8 |
| 20260904230404 | 82 | 37 | 1.0 | 2.0 | 0.00 | 0.00 | 0.00 | 87 | 1005.9 |
| 20260904225904 | 82 | 357 | 1.0 | 2.0 | 0.00 | 0.00 | 0.00 | 87 | 1005.9 |
| 20260904225404 | 82 | 7 | 0.0 | 3.0 | 0.00 | 0.00 | 0.00 | 87 | 1005.9 |
| 20260904224904 | 82 | 19 | 1.0 | 2.0 | 0.00 | 0.00 | 0.00 | 87 | 1005.9 |
| 20260904224404 | 82 | 288 | 0.0 | 1.0 | 0.00 | 0.00 | 0.00 | 87 | 1005.9 |
| 20260904223403 | 82 | 269 | 0.0 | 3.0 | 0.00 | 0.00 | 0.00 | 87 | 1005.7 |
| 20260904222904 | 82 | 327 | 0.0 | 1.0 | 0.00 | 0.00 | 0.00 | 87 | 1005.6 |
| 20260904222404 | 82 | 330 | 0.0 | 1.0 | 0.00 | 0.00 | 0.00 | 87 | 1005.6 |
| 20260904221904 | 81 | 331 | 0.0 | 2.0 | 0.00 | 0.00 | 0.00 | 87 | 1005.5 |
| 20260904221404 | 82 | 339 | 1.0 | 2.0 | 0.00 | 0.00 | 0.00 | 87 | 1005.5 |
| 20260904220904 | 82 | 327 | 1.0 | 3.0 | 0.00 | 0.00 | 0.00 | 87 | 1005.4 |
| 20260904220404 | 82 | 307 | 0.0 | 2.0 | 0.00 | 0.00 | 0.00 | 87 | 1005.5 |
| 20260904215904 | 82 | 306 | 0.0 | 2.0 | 0.00 | 0.00 | 0.00 | 87 | 1005.5 |
| 20260904215404 | 82 | 17 | 2.0 | 3.0 | 0.00 | 0.00 | 0.00 | 87 | 1005.5 |
| 20260904213904 | 82 | 332 | 0.0 | 1.0 | 0.00 | 0.00 | 0.00 | 86 | 1005.6 |
| 20260904213404 | 82 | 30 | 0.0 | 2.0 | 0.00 | 0.00 | 0.00 | 86 | 1005.5 |
| 20260904212903 | 82 | 30 | 1.0 | 2.0 | 0.00 | 0.00 | 0.00 | 86 | 1005.5 |
| 20260904212403 | 82 | 14 | 1.0 | 2.0 | 0.00 | 0.00 | 0.00 | 86 | 1005.5 |
| 20260904211903 | 82 | 24 | 1.0 | 2.0 | 0.00 | 0.00 | 0.00 | 86 | 1005.5 |
| 20260904211404 | 82 | 353 | 1.0 | 3.0 | 0.00 | 0.00 | 0.00 | 86 | 1005.5 |
| 20260904210904 | 82 | 5 | 2.0 | 3.0 | 0.00 | 0.00 | 0.00 | 86 | 1005.5 |
| 20260904210404 | 82 | 353 | 1.0 | 3.0 | 0.00 | 0.00 | 0.00 | 85 | 1005.5 |
| 20260904205903 | 82 | 345 | 2.0 | 3.0 | 0.00 | 0.00 | 0.00 | 85 | 1005.5 |
| 20260904205404 | 82 | 306 | 1.0 | 2.0 | 0.00 | 0.00 | 0.00 | 85 | 1005.5 |
| 20260904204903 | 82 | 300 | 1.0 | 2.0 | 0.00 | 0.00 | 0.00 | 85 | 1005.5 |
| 20260904204404 | 82 | 279 | 1.0 | 3.0 | 0.00 | 0.00 | 0.00 | 85 | 1005.5 |
| 20260904202904 | 82 | 315 | 0.0 | 1.0 | 0.00 | 0.00 | 0.00 | 85 | 1005.5 |
| 20260904201904 | 82 | 345 | 1.0 | 3.0 | 0.00 | 0.00 | 0.00 | 84 | 1005.4 |
| 20260904201404 | 82 | 45 | 1.0 | 2.0 | 0.00 | 0.00 | 0.00 | 84 | 1005.4 |
| 20260904200904 | 82 | 352 | 2.0 | 3.0 | 0.00 | 0.00 | 0.00 | 84 | 1005.4 |
| 20260904195904 | 83 | 283 | 0.0 | 1.0 | 0.00 | 0.00 | 0.00 | 83 | 1005.3 |
| 20260904195404 | 83 | 283 | 0.0 | 1.0 | 0.00 | 0.00 | 0.00 | 83 | 1005.3 |
| 20260904194904 | 83 | 329 | 0.0 | 1.0 | 0.00 | 0.00 | 0.00 | 83 | 1005.2 |
| 20260904193904 | 83 | 264 | 0.0 | 1.0 | 0.00 | 0.00 | 0.00 | 83 | 1005.2 |
| 20260904193404 | 83 | 277 | 0.0 | 1.0 | 0.00 | 0.00 | 0.00 | 83 | 1005.1 |
| 20260904192904 | 83 | 277 | 0.0 | 1.0 | 0.00 | 0.00 | 0.00 | 83 | 1005.2 |
| 20260904191904 | 83 | 277 | 0.0 | 1.0 | 0.00 | 0.00 | 0.00 | 83 | 1005.1 |
| 20260904191404 | 83 | 272 | 0.0 | 2.0 | 0.00 | 0.00 | 0.00 | 83 | 1005.1 |
| 20260904190904 | 83 | 272 | 1.0 | 2.0 | 0.00 | 0.00 | 0.00 | 83 | 1005.0 |
| 20260904190403 | 83 | 273 | 0.0 | 1.0 | 0.00 | 0.00 | 0.00 | 83 | 1005.0 |
| 20260904185904 | 83 | 273 | 0.0 | 1.0 | 0.00 | 0.00 | 0.00 | 83 | 1005.0 |
| 20260904185404 | 83 | 273 | 0.0 | 1.0 | 0.00 | 0.00 | 0.00 | 83 | 1005.0 |
| 20260904184404 | 83 | 276 | 0.0 | 1.0 | 0.00 | 0.00 | 0.00 | 83 | 1005.0 |
| 20260904183904 | 83 | 276 | 0.0 | 2.0 | 0.00 | 0.00 | 0.00 | 83 | 1004.9 |
| 20260904183403 | 83 | 276 | 0.0 | 1.0 | 0.00 | 0.00 | 0.00 | 83 | 1005.0 |
| 20260904182904 | 83 | 276 | 0.0 | 1.0 | 0.00 | 0.00 | 0.00 | 82 | 1004.9 |
| 20260904182404 | 83 | 276 | 0.0 | 1.0 | 0.00 | 0.00 | 0.00 | 82 | 1004.9 |
| 20260904181904 | 83 | 276 | 0.0 | 2.0 | 0.00 | 0.00 | 0.00 | 82 | 1004.9 |
| 20260904181404 | 83 | 277 | 0.0 | 1.0 | 0.00 | 0.00 | 0.00 | 82 | 1005.0 |
| 20260904180403 | 83 | 278 | 0.0 | 1.0 | 0.00 | 0.00 | 0.00 | 82 | 1005.0 |
| 20260904175904 | 83 | 282 | 1.0 | 2.0 | 0.00 | 0.00 | 0.00 | 82 | 1005.0 |
| 20260904174903 | 83 | 327 | 0.0 | 1.0 | 0.00 | 0.00 | 0.00 | 82 | 1005.2 |
| 20260904174404 | 83 | 340 | 0.0 | 2.0 | 0.00 | 0.00 | 0.00 | 82 | 1005.3 |
| 20260904173904 | 83 | 327 | 0.0 | 2.0 | 0.00 | 0.00 | 0.00 | 82 | 1005.3 |
| 20260904173403 | 83 | 343 | 1.0 | 2.0 | 0.00 | 0.00 | 0.00 | 83 | 1005.3 |
| 20260904172904 | 82 | 347 | 1.0 | 2.0 | 0.00 | 0.00 | 0.00 | 83 | 1005.2 |
| 20260904171904 | 83 | 336 | 0.0 | 2.0 | 0.00 | 0.00 | 0.00 | 83 | 1005.3 |
| 20260904171404 | 83 | 336 | 2.0 | 3.0 | 0.00 | 0.00 | 0.00 | 83 | 1005.3 |
| 20260904170904 | 83 | 327 | 0.0 | 2.0 | 0.00 | 0.00 | 0.00 | 83 | 1005.5 |
| 20260904170403 | 83 | 330 | 0.0 | 2.0 | 0.00 | 0.00 | 0.00 | 83 | 1005.4 |
| 20260904165904 | 83 | 343 | 1.0 | 2.0 | 0.00 | 0.00 | 0.00 | 83 | 1005.4 |
| 20260904164904 | 83 | 331 | 0.0 | 2.0 | 0.00 | 0.00 | 0.00 | 82 | 1005.5 |
| 20260904164403 | 83 | 348 | 1.0 | 2.0 | 0.00 | 0.00 | 0.00 | 82 | 1005.5 |
| 20260904163904 | 83 | 353 | 1.0 | 2.0 | 0.00 | 0.00 | 0.00 | 82 | 1005.5 |
| 20260904163404 | 83 | 18 | 1.0 | 3.0 | 0.00 | 0.00 | 0.00 | 82 | 1005.5 |
| 20260904162903 | 83 | 301 | 0.0 | 2.0 | 0.00 | 0.00 | 0.00 | 82 | 1005.5 |
| 20260904161904 | 83 | 271 | 0.0 | 1.0 | 0.00 | 0.00 | 0.00 | 83 | 1005.5 |
| 20260904161405 | 83 | 271 | 1.0 | 1.0 | 0.00 | 0.00 | 0.00 | 83 | 1005.6 |
| 20260904160904 | 83 | 271 | 0.0 | 2.0 | 0.00 | 0.00 | 0.00 | 83 | 1005.6 |
| 20260904160403 | 83 | 275 | 0.0 | 1.0 | 0.00 | 0.00 | 0.00 | 83 | 1005.6 |
| 20260904155904 | 83 | 274 | 0.0 | 1.0 | 0.00 | 0.00 | 0.00 | 83 | 1005.6 |
| 20260904155404 | 83 | 274 | 0.0 | 0.0 | 0.00 | 0.00 | 0.00 | 83 | 1005.6 |
| 20260904154404 | 84 | 278 | 0.0 | 0.0 | 0.00 | 0.00 | 0.00 | 82 | 1005.6 |
| 20260904153904 | 84 | 278 | 0.0 | 0.0 | 0.00 | 0.00 | 0.00 | 82 | 1005.6 |
| 20260904153404 | 84 | 276 | 0.0 | 0.0 | 0.00 | 0.00 | 0.00 | 82 | 1005.6 |
| 20260904152904 | 84 | 276 | 0.0 | 0.0 | 0.00 | 0.00 | 0.00 | 82 | 1005.7 |
| 20260904152404 | 84 | 256 | 0.0 | 0.0 | 0.00 | 0.00 | 0.00 | 82 | 1005.7 |
| 20260904151904 | 83 | 255 | 0.0 | 1.0 | 0.00 | 0.00 | 0.00 | 82 | 1005.7 |
| 20260904151403 | 83 | 252 | 0.0 | 1.0 | 0.00 | 0.00 | 0.00 | 83 | 1005.7 |
| 20260904150904 | 83 | 241 | 1.0 | 2.0 | 0.00 | 0.00 | 0.00 | 82 | 1005.7 |
| 20260904150404 | 83 | 264 | 0.0 | 2.0 | 0.00 | 0.00 | 0.00 | 82 | 1005.7 |
| 20260904145905 | 83 | 262 | 0.0 | 0.0 | 0.00 | 0.00 | 0.00 | 83 | 1005.8 |
| 20260904144904 | 83 | 258 | 0.0 | 1.0 | 0.00 | 0.00 | 0.00 | 83 | 1005.9 |
| 20260904143904 | 83 | 238 | 1.0 | 2.0 | 0.00 | 0.00 | 0.00 | 83 | 1006.0 |
| 20260904143404 | 83 | 271 | 0.0 | 0.0 | 0.00 | 0.00 | 0.00 | 83 | 1005.9 |
| 20260904142403 | 84 | 272 | 0.0 | 1.0 | 0.00 | 0.00 | 0.00 | 82 | 1005.8 |
| 20260904141903 | 84 | 273 | 0.0 | 1.0 | 0.00 | 0.00 | 0.00 | 82 | 1005.8 |
| 20260904141404 | 84 | 262 | 0.0 | 1.0 | 0.00 | 0.00 | 0.00 | 82 | 1005.9 |
| 20260904140904 | 84 | 261 | 1.0 | 2.0 | 0.00 | 0.00 | 0.00 | 82 | 1005.8 |
| 20260904140404 | 84 | 289 | 0.0 | 1.0 | 0.00 | 0.00 | 0.00 | 82 | 1005.8 |
| 20260904135904 | 84 | 301 | 0.0 | 1.0 | 0.00 | 0.00 | 0.00 | 82 | 1005.8 |
| 20260904134904 | 84 | 307 | 0.0 | 2.0 | 0.00 | 0.00 | 0.00 | 82 | 1005.8 |
| 20260904134404 | 84 | 313 | 1.0 | 2.0 | 0.00 | 0.00 | 0.00 | 82 | 1005.8 |
| 20260904133903 | 84 | 322 | 0.0 | 1.0 | 0.00 | 0.00 | 0.00 | 82 | 1005.8 |
| 20260904133404 | 84 | 323 | 0.0 | 1.0 | 0.00 | 0.00 | 0.00 | 81 | 1005.7 |
| 20260904132904 | 84 | 326 | 0.0 | 1.0 | 0.00 | 0.00 | 0.00 | 81 | 1005.7 |
| 20260904132404 | 84 | 328 | 0.0 | 1.0 | 0.00 | 0.00 | 0.00 | 81 | 1005.7 |
| 20260904131904 | 84 | 339 | 1.0 | 2.0 | 0.00 | 0.00 | 0.00 | 81 | 1005.6 |
| 20260904130904 | 84 | 277 | 0.0 | 3.0 | 0.00 | 0.00 | 0.00 | 82 | 1005.4 |
| 20260904130404 | 84 | 316 | 0.0 | 3.0 | 0.00 | 0.00 | 0.00 | 82 | 1005.3 |
| 20260904125903 | 84 | 341 | 2.0 | 3.0 | 0.00 | 0.00 | 0.00 | 82 | 1005.3 |
| 20260904125404 | 84 | 270 | 0.0 | 3.0 | 0.00 | 0.00 | 0.00 | 83 | 1005.2 |
| 20260904124904 | 83 | 298 | 1.0 | 3.0 | 0.00 | 0.00 | 0.00 | 83 | 1005.3 |
| 20260904124404 | 83 | 282 | 2.0 | 3.0 | 0.00 | 0.00 | 0.00 | 83 | 1005.2 |
| 20260904123904 | 84 | 300 | 2.0 | 3.0 | 0.00 | 0.00 | 0.00 | 82 | 1005.1 |
| 20260904123404 | 84 | 298 | 1.0 | 2.0 | 0.00 | 0.00 | 0.00 | 83 | 1004.9 |
| 20260904122904 | 84 | 303 | 1.0 | 2.0 | 0.00 | 0.00 | 0.00 | 82 | 1004.9 |
| 20260904122404 | 84 | 311 | 1.0 | 2.0 | 0.00 | 0.00 | 0.00 | 82 | 1004.9 |
| 20260904121904 | 84 | 308 | 0.0 | 2.0 | 0.00 | 0.00 | 0.00 | 81 | 1004.7 |
| 20260904121404 | 84 | 341 | 1.0 | 3.0 | 0.00 | 0.00 | 0.00 | 81 | 1004.7 |
| 20260904120903 | 84 | 345 | 1.0 | 2.0 | 0.00 | 0.00 | 0.00 | 81 | 1004.7 |
| 20260904120404 | 84 | 293 | 0.0 | 2.0 | 0.00 | 0.00 | 0.00 | 81 | 1004.8 |
| 20260904115904 | 84 | 291 | 1.0 | 2.0 | 0.00 | 0.00 | 0.00 | 81 | 1004.7 |
| 20260904115404 | 84 | 314 | 0.0 | 2.0 | 0.00 | 0.00 | 0.00 | 81 | 1004.7 |
| 20260904114903 | 84 | 350 | 1.0 | 3.0 | 0.00 | 0.00 | 0.00 | 81 | 1004.7 |
| 20260904114404 | 84 | 6 | 3.0 | 6.0 | 0.00 | 0.00 | 0.00 | 81 | 1004.6 |
| 20260904113904 | 84 | 346 | 2.0 | 3.0 | 0.00 | 0.00 | 0.00 | 81 | 1004.6 |
| 20260904113404 | 84 | 337 | 2.0 | 3.0 | 0.00 | 0.00 | 0.00 | 80 | 1004.4 |
| 20260904112404 | 85 | 55 | 1.0 | 3.0 | 0.00 | 0.00 | 0.00 | 80 | 1004.3 |
| 20260904111904 | 85 | 337 | 1.0 | 3.0 | 0.00 | 0.00 | 0.00 | 80 | 1004.4 |
| 20260904110904 | 85 | 243 | 2.0 | 3.0 | 0.00 | 0.00 | 0.00 | 79 | 1004.3 |
| 20260904105903 | 84 | 343 | 1.0 | 2.0 | 0.00 | 0.00 | 0.00 | 79 | 1004.1 |
| 20260904105404 | 84 | 349 | 0.0 | 2.0 | 0.00 | 0.00 | 0.00 | 79 | 1004.1 |
| 20260904104403 | 85 | 40 | 2.0 | 3.0 | 0.00 | 0.00 | 0.00 | 79 | 1004.0 |
| 20260904103904 | 84 | 33 | 1.0 | 2.0 | 0.00 | 0.00 | 0.00 | 79 | 1003.9 |
| 20260904102904 | 84 | 333 | 0.0 | 2.0 | 0.00 | 0.00 | 0.00 | 79 | 1003.8 |
| 20260904102404 | 84 | 351 | 0.0 | 1.0 | 0.00 | 0.00 | 0.00 | 79 | 1003.9 |
| 20260904101904 | 84 | 304 | 0.0 | 1.0 | 0.00 | 0.00 | 0.00 | 80 | 1003.8 |
| 20260904101404 | 85 | 301 | 2.0 | 3.0 | 0.00 | 0.00 | 0.00 | 79 | 1003.9 |
| 20260904100904 | 85 | 310 | 0.0 | 1.0 | 0.00 | 0.00 | 0.00 | 79 | 1003.9 |
| 20260904100403 | 84 | 297 | 0.0 | 1.0 | 0.00 | 0.00 | 0.00 | 79 | 1003.9 |
| 20260904095903 | 84 | 298 | 1.0 | 2.0 | 0.00 | 0.00 | 0.00 | 79 | 1003.8 |
| 20260904095404 | 84 | 285 | 1.0 | 3.0 | 0.00 | 0.00 | 0.00 | 78 | 1003.7 |
| 20260904094904 | 84 | 287 | 0.0 | 2.0 | 0.00 | 0.00 | 0.00 | 78 | 1003.6 |
| 20260904093904 | 85 | 288 | 1.0 | 2.0 | 0.00 | 0.00 | 0.00 | 78 | 1003.6 |
| 20260904093404 | 85 | 283 | 1.0 | 3.0 | 0.00 | 0.00 | 0.00 | 78 | 1003.6 |
| 20260904092903 | 85 | 303 | 2.0 | 3.0 | 0.00 | 0.00 | 0.00 | 78 | 1003.4 |
| 20260904091404 | 85 | 294 | 1.0 | 6.0 | 0.00 | 0.00 | 0.00 | 77 | 1003.2 |
| 20260904090904 | 85 | 296 | 2.0 | 3.0 | 0.00 | 0.00 | 0.00 | 77 | 1003.1 |
| 20260904090404 | 85 | 285 | 0.0 | 3.0 | 0.00 | 0.00 | 0.00 | 77 | 1003.0 |
| 20260904085904 | 86 | 303 | 2.0 | 3.0 | 0.00 | 0.00 | 0.00 | 75 | 1003.0 |
| 20260904085404 | 86 | 263 | 0.0 | 3.0 | 0.00 | 0.00 | 0.00 | 75 | 1002.9 |
| 20260904084403 | 86 | 268 | 1.0 | 3.0 | 0.00 | 0.00 | 0.00 | 75 | 1002.9 |
| 20260904083403 | 87 | 291 | 0.0 | 2.0 | 0.00 | 0.00 | 0.00 | 74 | 1002.7 |
| 20260904082904 | 87 | 266 | 0.0 | 2.0 | 0.00 | 0.00 | 0.00 | 74 | 1002.7 |
| 20260904081904 | 86 | 295 | 0.0 | 2.0 | 0.00 | 0.00 | 0.00 | 74 | 1002.6 |
| 20260904081404 | 86 | 266 | 1.0 | 3.0 | 0.00 | 0.00 | 0.00 | 74 | 1002.6 |
| 20260904080903 | 86 | 255 | 0.0 | 3.0 | 0.00 | 0.00 | 0.00 | 74 | 1002.7 |
| 20260904075904 | 87 | 257 | 2.0 | 7.0 | 0.00 | 0.00 | 0.00 | 74 | 1002.6 |
| 20260904075404 | 87 | 302 | 2.0 | 7.0 | 0.00 | 0.00 | 0.00 | 72 | 1002.6 |
| 20260904074904 | 88 | 296 | 2.0 | 6.0 | 0.00 | 0.00 | 0.00 | 71 | 1002.6 |
| 20260904074404 | 89 | 292 | 0.0 | 2.0 | 0.00 | 0.00 | 0.00 | 71 | 1002.5 |
| 20260904073403 | 89 | 272 | 0.0 | 2.0 | 0.00 | 0.00 | 0.00 | 70 | 1002.5 |
| 20260904072404 | 88 | 326 | 1.0 | 3.0 | 0.00 | 0.00 | 0.00 | 71 | 1002.5 |
| 20260904071904 | 88 | 334 | 1.0 | 5.0 | 0.00 | 0.00 | 0.00 | 71 | 1002.5 |
| 20260904070904 | 88 | 333 | 1.0 | 3.0 | 0.00 | 0.00 | 0.00 | 70 | 1002.4 |
| 20260904070403 | 88 | 318 | 0.0 | 2.0 | 0.00 | 0.00 | 0.00 | 71 | 1002.4 |
| 20260904065904 | 87 | 353 | 0.0 | 2.0 | 0.00 | 0.00 | 0.00 | 72 | 1002.5 |
| 20260904065404 | 87 | 331 | 0.0 | 3.0 | 0.00 | 0.00 | 0.00 | 72 | 1002.5 |
| 20260904064904 | 87 | 57 | 1.0 | 3.0 | 0.00 | 0.00 | 0.00 | 71 | 1002.4 |
| 20260904064403 | 87 | 287 | 1.0 | 2.0 | 0.00 | 0.00 | 0.00 | 71 | 1002.4 |
| 20260904063904 | 88 | 108 | 2.0 | 5.0 | 0.00 | 0.00 | 0.00 | 70 | 1002.4 |
| 20260904062904 | 88 | 270 | 1.0 | 3.0 | 0.00 | 0.00 | 0.00 | 70 | 1002.4 |
| 20260904062404 | 89 | 129 | 1.0 | 2.0 | 0.00 | 0.00 | 0.00 | 70 | 1002.4 |
| 20260904061403 | 89 | 331 | 1.0 | 3.0 | 0.00 | 0.00 | 0.00 | 70 | 1002.5 |
| 20260904060904 | 89 | 68 | 1.0 | 3.0 | 0.00 | 0.00 | 0.00 | 70 | 1002.5 |
| 20260904060403 | 88 | 340 | 1.0 | 3.0 | 0.00 | 0.00 | 0.00 | 70 | 1002.5 |
| 20260904055903 | 88 | 305 | 1.0 | 3.0 | 0.00 | 0.00 | 0.00 | 71 | 1002.5 |
| 20260904055404 | 88 | 312 | 1.0 | 5.0 | 0.00 | 0.00 | 0.00 | 71 | 1002.5 |
| 20260904054904 | 88 | 358 | 5.0 | 5.0 | 0.00 | 0.00 | 0.00 | 71 | 1002.6 |
| 20260904054404 | 88 | 324 | 1.0 | 3.0 | 0.00 | 0.00 | 0.00 | 71 | 1002.6 |
| 20260904053904 | 88 | 328 | 1.0 | 3.0 | 0.00 | 0.00 | 0.00 | 72 | 1002.6 |
| 20260904053403 | 87 | 259 | 2.0 | 5.0 | 0.00 | 0.00 | 0.00 | 72 | 1002.6 |
| 20260904052903 | 87 | 313 | 1.0 | 3.0 | 0.00 | 0.00 | 0.00 | 72 | 1002.6 |
| 20260904051904 | 88 | 254 | 1.0 | 5.0 | 0.00 | 0.00 | 0.00 | 72 | 1002.7 |
| 20260904051404 | 87 | 256 | 0.0 | 3.0 | 0.00 | 0.00 | 0.00 | 72 | 1002.7 |
| 20260904050904 | 87 | 283 | 0.0 | 3.0 | 0.00 | 0.00 | 0.00 | 73 | 1002.8 |
| 20260904050404 | 87 | 242 | 1.0 | 3.0 | 0.00 | 0.00 | 0.00 | 73 | 1002.9 |
| 20260904045903 | 87 | 258 | 1.0 | 3.0 | 0.00 | 0.00 | 0.00 | 73 | 1003.0 |
| 20260904044903 | 86 | 264 | 1.0 | 3.0 | 0.00 | 0.00 | 0.00 | 74 | 1003.1 |
| 20260904044404 | 87 | 288 | 2.0 | 6.0 | 0.00 | 0.00 | 0.00 | 74 | 1003.1 |
| 20260904043904 | 87 | 340 | 0.0 | 3.0 | 0.00 | 0.00 | 0.00 | 74 | 1003.1 |
| 20260904043404 | 87 | 330 | 0.0 | 2.0 | 0.00 | 0.00 | 0.00 | 74 | 1003.2 |
| 20260904042904 | 86 | 320 | 1.0 | 3.0 | 0.00 | 0.00 | 0.00 | 75 | 1003.2 |
| 20260904042404 | 86 | 265 | 1.0 | 7.0 | 0.00 | 0.00 | 0.00 | 74 | 1003.3 |
| 20260904041904 | 87 | 315 | 2.0 | 5.0 | 0.00 | 0.00 | 0.00 | 74 | 1003.3 |
| 20260904041404 | 86 | 280 | 0.0 | 3.0 | 0.00 | 0.00 | 0.00 | 74 | 1003.3 |
| 20260904040903 | 86 | 349 | 1.0 | 3.0 | 0.00 | 0.00 | 0.00 | 73 | 1003.4 |
| 20260904035904 | 87 | 323 | 0.0 | 3.0 | 0.00 | 0.00 | 0.00 | 74 | 1003.4 |
| 20260904034904 | 86 | 273 | 0.0 | 2.0 | 0.00 | 0.00 | 0.00 | 75 | 1003.5 |
| 20260904034404 | 86 | 268 | 1.0 | 3.0 | 0.00 | 0.00 | 0.00 | 75 | 1003.5 |
| 20260904033904 | 86 | 275 | 2.0 | 3.0 | 0.00 | 0.00 | 0.00 | 74 | 1003.5 |
| 20260904033404 | 86 | 228 | 0.0 | 2.0 | 0.00 | 0.00 | 0.00 | 75 | 1003.5 |
| 20260904032904 | 86 | 236 | 1.0 | 3.0 | 0.00 | 0.00 | 0.00 | 75 | 1003.6 |
| 20260904032403 | 85 | 291 | 1.0 | 3.0 | 0.00 | 0.00 | 0.00 | 75 | 1003.6 |
| 20260904031904 | 85 | 256 | 1.0 | 3.0 | 0.00 | 0.00 | 0.00 | 76 | 1003.6 |
| 20260904031404 | 85 | 236 | 1.0 | 6.0 | 0.00 | 0.00 | 0.00 | 75 | 1003.7 |
| 20260904030904 | 85 | 319 | 0.0 | 2.0 | 0.00 | 0.00 | 0.00 | 76 | 1003.7 |
| 20260904024903 | 85 | 269 | 1.0 | 3.0 | 0.00 | 0.00 | 0.00 | 76 | 1003.6 |
| 20260904024404 | 85 | 5 | 1.0 | 5.0 | 0.00 | 0.00 | 0.00 | 75 | 1003.7 |
| 20260904023904 | 85 | 287 | 0.0 | 3.0 | 0.00 | 0.00 | 0.00 | 75 | 1003.8 |
| 20260904023404 | 85 | 252 | 0.0 | 2.0 | 0.00 | 0.00 | 0.00 | 76 | 1003.8 |
| 20260904022904 | 84 | 237 | 0.0 | 3.0 | 0.00 | 0.00 | 0.00 | 75 | 1003.8 |
| 20260904022403 | 85 | 311 | 1.0 | 3.0 | 0.00 | 0.00 | 0.00 | 75 | 1003.8 |
| 20260904021904 | 85 | 230 | 1.0 | 3.0 | 0.00 | 0.00 | 0.00 | 75 | 1003.8 |
| 20260904021404 | 85 | 238 | 0.0 | 2.0 | 0.00 | 0.00 | 0.00 | 75 | 1003.7 |
| 20260904020904 | 85 | 258 | 0.0 | 1.0 | 0.00 | 0.00 | 0.00 | 75 | 1003.7 |
| 20260904020404 | 84 | 290 | 1.0 | 3.0 | 0.00 | 0.00 | 0.00 | 75 | 1003.6 |
| 20260904015904 | 85 | 218 | 1.0 | 3.0 | 0.00 | 0.00 | 0.00 | 75 | 1003.5 |
| 20260904015403 | 84 | 247 | 0.0 | 1.0 | 0.00 | 0.00 | 0.00 | 76 | 1003.5 |
| 20260904014904 | 84 | 231 | 1.0 | 3.0 | 0.00 | 0.00 | 0.00 | 76 | 1003.5 |
| 20260904013904 | 84 | 357 | 1.0 | 3.0 | 0.00 | 0.00 | 0.00 | 76 | 1003.5 |
| 20260904013403 | 84 | 263 | 0.0 | 1.0 | 0.00 | 0.00 | 0.00 | 76 | 1003.5 |
| 20260904012403 | 84 | 249 | 0.0 | 2.0 | 0.00 | 0.00 | 0.00 | 76 | 1003.5 |
| 20260904011903 | 84 | 240 | 0.0 | 3.0 | 0.00 | 0.00 | 0.00 | 76 | 1003.6 |
| 20260904011403 | 84 | 262 | 0.0 | 0.0 | 0.00 | 0.00 | 0.00 | 77 | 1003.5 |
| 20260904010904 | 83 | 250 | 0.0 | 1.0 | 0.00 | 0.00 | 0.00 | 77 | 1003.5 |
| 20260904010404 | 83 | 221 | 0.0 | 2.0 | 0.00 | 0.00 | 0.00 | 77 | 1003.5 |
| 20260904004904 | 82 | 240 | 1.0 | 2.0 | 0.00 | 0.00 | 0.00 | 79 | 1003.4 |
| 20260904004404 | 82 | 275 | 1.0 | 3.0 | 0.00 | 0.00 | 0.00 | 78 | 1003.3 |
| 20260904003903 | 82 | 334 | 1.0 | 3.0 | 0.00 | 0.00 | 0.00 | 78 | 1003.2 |
| 20260904003404 | 82 | 259 | 1.0 | 2.0 | 0.00 | 0.00 | 0.00 | 78 | 1003.2 |
| 20260904002904 | 82 | 323 | 0.0 | 3.0 | 0.00 | 0.00 | 0.00 | 79 | 1003.1 |
| 20260904002404 | 81 | 269 | 1.0 | 2.0 | 0.00 | 0.00 | 0.00 | 78 | 1003.0 |
| 20260904001904 | 81 | 331 | 1.0 | 3.0 | 0.00 | 0.00 | 0.00 | 79 | 1003.0 |
| 20260904000903 | 82 | 283 | 0.0 | 1.0 | 0.00 | 0.00 | 0.00 | 79 | 1003.0 |
| 20260904000403 | 82 | 279 | 0.0 | 3.0 | 0.00 | 0.00 | 0.00 | 79 | 1002.9 |
| 20260903235903 | 82 | 294 | 0.0 | 2.0 | 0.00 | 0.00 | 0.00 | 79 | 1002.8 |
| 20260903234904 | 82 | 312 | 0.0 | 1.0 | 0.00 | 0.00 | 0.00 | 79 | 1002.8 |
| 20260903234403 | 81 | 260 | 0.0 | 1.0 | 0.00 | 0.00 | 0.00 | 79 | 1002.7 |
| 20260903233903 | 81 | 258 | 1.0 | 2.0 | 0.00 | 0.00 | 0.00 | 79 | 1002.6 |
| 20260903233404 | 81 | 310 | 0.0 | 1.0 | 0.00 | 0.00 | 0.00 | 79 | 1002.6 |
| 20260903232903 | 81 | 284 | 0.0 | 2.0 | 0.00 | 0.00 | 0.00 | 79 | 1002.5 |